This is the latest recevied weather packets stored in our database for station/object IZ0VWB-3. If no packets are shown the sender has not sent any weather packets the latest 10 day(s).
| Time | Temp. | Humidity | Pressure | Rain* | Wind** | Luminosity | Snow |
|---|---|---|---|---|---|---|---|
| 1777621106 | 13.33° C | 53% | 1010.1 hPa | 0 mm | - | - | - |
| 1777620505 | 13.33° C | 53% | 1010.2 hPa | 0 mm | - | - | - |
| 1777619906 | 13.33° C | 53% | 1010.2 hPa | 0 mm | - | - | - |
| 1777619304 | 12.78° C | 57% | 1010.2 hPa | 0 mm | - | - | - |
| 1777618705 | 12.22° C | 58% | 1010 hPa | 0 mm | - | - | - |
| 1777618105 | 12.22° C | 59% | 1010.1 hPa | 0 mm | - | - | - |
| 1777617504 | 11.67° C | 60% | 1010 hPa | 0 mm | - | - | - |
| 1777616905 | 11.11° C | 61% | 1009.9 hPa | 0 mm | - | - | - |
| 1777616303 | 11.11° C | 62% | 1009.8 hPa | 0 mm | - | - | - |
| 1777615704 | 10.56° C | 62% | 1009.6 hPa | 0 mm | - | - | - |
| 1777615105 | 10° C | 63% | 1009.6 hPa | 0 mm | - | - | - |
| 1777614503 | 10° C | 62% | 1009.6 hPa | 0 mm | - | - | - |
| 1777613904 | 10° C | 61% | 1009.6 hPa | 0 mm | - | - | - |
| 1777613304 | 10° C | 61% | 1009.6 hPa | 0 mm | - | - | - |
| 1777612705 | 9.44° C | 63% | 1009.5 hPa | 0 mm | - | - | - |
| 1777612103 | 8.89° C | 63% | 1009.6 hPa | 0 mm | - | - | - |
| 1777611502 | 8.33° C | 65% | 1009.6 hPa | 0 mm | - | - | - |
| 1777610903 | 8.33° C | 65% | 1009.4 hPa | 0 mm | - | - | - |
| 1777610304 | 8.33° C | 66% | 1009.1 hPa | 0 mm | - | - | - |
| 1777609702 | 7.78° C | 67% | 1009.3 hPa | 0 mm | - | - | - |
| 1777609103 | 7.22° C | 68% | 1009.2 hPa | 0 mm | - | - | - |
| 1777608503 | 7.22° C | 68% | 1009.1 hPa | 0 mm | - | - | - |
| 1777607904 | 7.22° C | 68% | 1009.2 hPa | 0 mm | - | - | - |
| 1777607302 | 7.22° C | 68% | 1009.1 hPa | 0 mm | - | - | - |
| 1777606703 | 7.22° C | 67% | 1009 hPa | 0 mm | - | - | - |
* Rain latest hour (hover to see other rain measurements)
** Current wind speed in m/s (hover to see current wind gust speed)